Regional Weather Roundup
Issued by NWS

Home | Current Version | Previous Version | Graphics & Text | Print | Product List | Glossary On
Versions: 1 2 3 4 5 6 7 8 9 10 11 12 13 14 15 16 17 18 19 20 21 22 23 24 25 26 27 28 29 30 31 32 33 34 35 36 37 38 39 40 41 42 43 44 45 46 47 48 49 50
000
ASUS43 KLSX 191059
RWRMO

WEATHER SUMMARY FOR MISSOURI
NATIONAL WEATHER SERVICE SPRINGFIELD MO
600 AM CDT FRI SEP 19 2014

NOTE: "FAIR" INDICATES FEW OR NO CLOUDS BELOW 12,000 FEET WITH NO
       SIGNIFICANT WEATHER AND/OR OBSTRUCTIONS TO VISIBILITY.
       CURRENT SKY AND/OR WEATHER CONDITIONS ARE NOT AVAILABLE FOR
       CHILLICOTHE AND FARMINGTON.

MOZ001>031-035>038-043-044-053-054-191200-
...NORTHERN AND WESTERN MISSOURI...

CITY           SKY/WX    TMP DP  RH WIND       PRES   REMARKS
KANSAS CTY INT CLOUDY    62  61  96 S10       30.01R
KANSAS C DTWN  CLOUDY    64  61  90 S7        30.01R
LEE`S SUMMIT   CLOUDY    62  60  93 SE6       30.03R FOG
ST JOSEPH      CLOUDY    62  61  96 S8        30.01R FOG
KIRKSVILLE     CLEAR     51  50  96 SE6       30.06F

$$
MOZ066>068-077>081-088>096-101>105-191200-
...SOUTHWEST MISSOURI...

CITY           SKY/WX    TMP DP  RH WIND       PRES   REMARKS
SPRINGFIELD    CLEAR     61  59  93 SE7       30.03R
JOPLIN         PTCLDY    63  61  93 S7        30.01R

$$
MOZ032>034-039>042-045>050-055>058-069>072-191200-
...CENTRAL MISSOURI...

CITY           SKY/WX    TMP DP  RH WIND       PRES   REMARKS
COLUMBIA       CLEAR     57  54  89 E7          N/A
JEFFERSON CITY CLEAR     54  53  97 CALM      30.06R FOG
ROLLA          CLEAR     56  54  93 E6        30.05S FOG
SEDALIA        FOG       60  59  96 SE8       30.05R VSB 1/4
OSAGE BEACH    CLOUDY    55  54  94 CALM      30.06S

$$
MOZ051-052-059>065-191200-
...EAST CENTRAL MISSOURI...

CITY           SKY/WX    TMP DP  RH WIND       PRES   REMARKS
ST LOUIS INTL  CLEAR     56  52  86 E3        30.09R
SPIRIT OF STL  CLEAR     51  49  92 CALM      30.07S FOG
ST CHARLES     FOG       52  52 100 CALM      30.08S VSB 3/4

$$
MOZ072>076-082>087-097>100-106>115-191200-
...SOUTH CENTRAL AND SOUTHEAST MISSOURI...

CITY           SKY/WX    TMP DP  RH WIND       PRES   REMARKS
CAPE GIRARDEAU CLEAR     54  53  97 CALM      30.05S FOG
FARMINGTON     MOCLDY    55  52  88 CALM      30.09R
POPLAR BLUFF   CLEAR     58  53  84 NE5       30.03R
WEST PLAINS    CLEAR     54  52  93 NE3       30.06R FOG

$$



USA.gov is the U.S. government's official web portal to all federal, state and local government web resources and services.